Search for airport 
image banner adimage banner ad
image banner ad

WBKU - Kuala Penyu

Located in , Malaysia

ICAO - WBKU, IATA -

Data provided by Airmate  

General information

Coordinates: N5°35'59" E115°34'28"
Elevation is 6 feet MSL.
 
Rated:
View ratings: [VIEW]


View others Airports in Sabah

Operational data

Open for public use
Current time UTC:
Current local time:
Weather at : WBKL - Labuan ( 49 km )
METAR: WBKL 060400Z VRB03KT 9999 FEW013 BKN290 31/26 Q1011
TAF: TAF WBKL 052300Z 0600/0700 VRB03KT 9999 FEW015 TEMPO 0600/0602 5000 TSRA FEW013 FEW014CB SCT030 BECMG 0611/0613 04005KT
View NOTAMs / SUP AIP / TFR affecting this airport [VIEW]
Communications frequencies: [VIEW]

Runways:

RWY identifierQFULength (ft)Width (ft)SurfaceLDA (ft)
0300
2100

Airport contact information

Address: Malaysia

Satellite view of WBKU